When you browse on this site, cookies collect data to enhance your experience and personalize the content and advertising you see.
Visit our Privacy Policy to learn more. By continuing to use the site, you agree to this use of cookies and data.
  • In Deutschland
  • Länderverzeichnis
  • Für 7 Tage
  • Wassertemperatur
  • Satellitenkarten
  • Wetterkarte
  • Widgets
  • user-avatar
    Anmelden

    Stündliche Wetter Polna

    Heute, 23 Februar, Samstag

    Zeit Temperatur Niederschläge Wind Luftdruck Luftfeuchtigkeit
    00:00 -9°C° 0 mm 2 m/S 775 mmHg 76%
    01:00 -8°C° 0 mm 2 m/S 775 mmHg 73%
    02:00 -9°C° 0 mm 4 m/S 774 mmHg 68%
    03:00 -9°C° 0 mm 4 m/S 773 mmHg 66%
    04:00 -8°C° 0 mm 4 m/S 772 mmHg 64%
    05:00 -8°C° 0 mm 4 m/S 772 mmHg 62%
    06:00 -7°C° 0.3 mm 5 m/S 771 mmHg 71%
    07:00 -7°C° 0.3 mm 5 m/S 770 mmHg 80%
    08:00 -8°C° 0 mm 7 m/S 770 mmHg 90%
    09:00 -7°C° 0.3 mm 7 m/S 769 mmHg 89%
    10:00 -5°C° 0.3 mm 6 m/S 768 mmHg 87%
    11:00 -4°C° 0.3 mm 6 m/S 767 mmHg 86%
    12:00 -3°C° 0.1 mm 6 m/S 767 mmHg 86%
    13:00 -3°C° 0.1 mm 6 m/S 767 mmHg 87%
    14:00 -2°C° 0.1 mm 6 m/S 766 mmHg 87%
    15:00 -2°C° 0 mm 6 m/S 766 mmHg 88%
    16:00 0°C° 0 mm 5 m/S 766 mmHg 89%
    17:00 0°C° 0 mm 5 m/S 765 mmHg 90%
    18:00 0°C° 0 mm 5 m/S 765 mmHg 91%
    19:00 0°C° 0 mm 4 m/S 765 mmHg 92%
    20:00 0°C° 0 mm 4 m/S 766 mmHg 93%
    21:00 -1°C° 0 mm 4 m/S 766 mmHg 93%
    22:00 -1°C° 0 mm 4 m/S 766 mmHg 94%
    23:00 0°C° 0 mm 3 m/S 766 mmHg 95%

    Morgen, 24 Februar, Sonntag

    Zeit Temperatur Niederschläge Wind Luftdruck Luftfeuchtigkeit
    00:00 0°C° 0 mm 3 m/S 766 mmHg 95%
    01:00 0°C° 0 mm 3 m/S 766 mmHg 96%
    02:00 0°C° 0 mm 3 m/S 766 mmHg 96%
    03:00 0°C° 0 mm 3 m/S 765 mmHg 96%
    04:00 0°C° 0 mm 3 m/S 765 mmHg 96%
    05:00 0°C° 0 mm 3 m/S 765 mmHg 96%
    06:00 -1°C° 0 mm 3 m/S 765 mmHg 96%
    07:00 -1°C° 0 mm 3 m/S 765 mmHg 96%
    08:00 -1°C° 0 mm 3 m/S 765 mmHg 96%
    09:00 0°C° 0 mm 3 m/S 765 mmHg 96%
    10:00 0°C° 0 mm 3 m/S 764 mmHg 95%
    11:00 +1°C° 0 mm 3 m/S 764 mmHg 95%
    12:00 +1°C° 0 mm 3 m/S 764 mmHg 94%
    13:00 0°C° 0 mm 4 m/S 763 mmHg 94%
    14:00 0°C° 0 mm 4 m/S 763 mmHg 93%
    15:00 0°C° 0 mm 4 m/S 762 mmHg 93%
    16:00 0°C° 0 mm 4 m/S 761 mmHg 93%
    17:00 0°C° 0 mm 5 m/S 761 mmHg 93%
    18:00 0°C° 0.1 mm 5 m/S 761 mmHg 93%
    19:00 0°C° 0.1 mm 4 m/S 761 mmHg 93%
    20:00 0°C° 0.1 mm 4 m/S 761 mmHg 93%
    21:00 0°C° 0 mm 4 m/S 761 mmHg 92%
    22:00 0°C° 0 mm 4 m/S 761 mmHg 91%
    23:00 0°C° 0 mm 4 m/S 761 mmHg 90%

    übermorgen, 25 Februar, Montag

    Zeit Temperatur Niederschläge Wind Luftdruck Luftfeuchtigkeit
    00:00 -1°C° 0 mm 5 m/S 761 mmHg 88%
    01:00 -1°C° 0 mm 5 m/S 761 mmHg 86%
    02:00 -1°C° 0 mm 5 m/S 761 mmHg 83%
    03:00 -1°C° 0 mm 5 m/S 760 mmHg 83%
    04:00 -1°C° 0 mm 5 m/S 760 mmHg 82%
    05:00 -1°C° 0 mm 5 m/S 759 mmHg 82%
    06:00 -1°C° 0 mm 5 m/S 759 mmHg 81%
    07:00 -1°C° 0 mm 5 m/S 758 mmHg 79%
    08:00 -1°C° 0 mm 5 m/S 758 mmHg 78%
    09:00 -1°C° 0 mm 6 m/S 758 mmHg 75%
    10:00 +1°C° 0 mm 6 m/S 758 mmHg 72%
    11:00 +2°C° 0 mm 6 m/S 757 mmHg 70%
    12:00 +2°C° 0 mm 6 m/S 757 mmHg 69%
    13:00 +2°C° 0 mm 6 m/S 757 mmHg 69%
    14:00 +2°C° 0 mm 6 m/S 757 mmHg 68%
    15:00 +2°C° 0 mm 6 m/S 757 mmHg 71%
    16:00 +1°C° 0 mm 5 m/S 757 mmHg 73%
    17:00 +1°C° 0 mm 5 m/S 757 mmHg 75%
    18:00 0°C° 0 mm 5 m/S 758 mmHg 78%
    19:00 0°C° 0 mm 4 m/S 758 mmHg 80%
    20:00 -1°C° 0 mm 4 m/S 758 mmHg 83%
    21:00 -1°C° 0 mm 4 m/S 758 mmHg 84%
    22:00 -1°C° 0 mm 4 m/S 757 mmHg 85%
    23:00 -2°C° 0 mm 4 m/S 757 mmHg 87%

    26 Februar, Dienstag

    Zeit Temperatur Niederschläge Wind Luftdruck Luftfeuchtigkeit
    00:00 -2°C° 0 mm 4 m/S 757 mmHg 86%
    01:00 -1°C° 0 mm 4 m/S 757 mmHg 86%
    02:00 -1°C° 0 mm 4 m/S 756 mmHg 85%
    03:00 -1°C° 0.1 mm 4 m/S 756 mmHg 86%
    04:00 -1°C° 0.1 mm 4 m/S 755 mmHg 87%
    05:00 -1°C° 0.1 mm 4 m/S 755 mmHg 88%
    06:00 0°C° 0.1 mm 3 m/S 755 mmHg 90%
    07:00 0°C° 0.1 mm 3 m/S 755 mmHg 91%
    08:00 0°C° 0.1 mm 3 m/S 755 mmHg 93%
    09:00 +1°C° 0.1 mm 3 m/S 755 mmHg 92%
    10:00 +1°C° 0.1 mm 3 m/S 755 mmHg 92%
    11:00 +1°C° 0.1 mm 3 m/S 755 mmHg 92%
    12:00 0°C° 0 mm 4 m/S 756 mmHg 90%
    13:00 0°C° 0 mm 4 m/S 756 mmHg 88%
    14:00 +1°C° 0 mm 4 m/S 756 mmHg 87%
    15:00 0°C° 0 mm 4 m/S 757 mmHg 87%
    16:00 0°C° 0 mm 4 m/S 757 mmHg 87%
    17:00 +1°C° 0 mm 3 m/S 758 mmHg 88%
    18:00 0°C° 0 mm 3 m/S 758 mmHg 90%
    19:00 +1°C° 0 mm 2 m/S 759 mmHg 92%
    20:00 -1°C° 0 mm 2 m/S 759 mmHg 94%
    21:00 -1°C° 0 mm 2 m/S 759 mmHg 94%
    22:00 0°C° 0 mm 1 m/S 760 mmHg 95%
    23:00 0°C° 0 mm 1 m/S 760 mmHg 96%

    27 Februar, Mittwoch

    Zeit Temperatur Niederschläge Wind Luftdruck Luftfeuchtigkeit
    00:00 0°C° 0 mm 1 m/S 760 mmHg 96%
    01:00 -1°C° 0 mm 1 m/S 760 mmHg 95%
    02:00 -2°C° 0 mm 0 m/S 760 mmHg 95%
    03:00 -1°C° 0 mm 1 m/S 759 mmHg 96%
    04:00 -1°C° 0 mm 1 m/S 759 mmHg 96%
    05:00 -2°C° 0 mm 2 m/S 758 mmHg 96%
    06:00 -2°C° 0 mm 2 m/S 758 mmHg 95%
    07:00 -1°C° 0 mm 3 m/S 757 mmHg 93%
    08:00 -2°C° 0 mm 4 m/S 756 mmHg 91%
    09:00 -1°C° 0 mm 4 m/S 755 mmHg 89%
    10:00 0°C° 0 mm 4 m/S 755 mmHg 88%
    11:00 +1°C° 0 mm 5 m/S 754 mmHg 86%
    12:00 +1°C° 0 mm 5 m/S 754 mmHg 83%
    13:00 +2°C° 0 mm 5 m/S 754 mmHg 80%
    14:00 +2°C° 0 mm 5 m/S 753 mmHg 77%
    15:00 +1°C° 0 mm 4 m/S 753 mmHg 78%
    16:00 +1°C° 0 mm 4 m/S 753 mmHg 80%
    17:00 0°C° 0 mm 4 m/S 752 mmHg 82%
    18:00 0°C° 0 mm 4 m/S 752 mmHg 84%
    19:00 0°C° 0 mm 4 m/S 752 mmHg 85%
    20:00 -1°C° 0 mm 5 m/S 751 mmHg 86%
    21:00 -1°C° 0 mm 4 m/S 751 mmHg 87%
    22:00 -1°C° 0 mm 4 m/S 750 mmHg 87%
    23:00 -2°C° 0 mm 4 m/S 750 mmHg 87%

    28 Februar, Donnerstag

    Zeit Temperatur Niederschläge Wind Luftdruck Luftfeuchtigkeit
    00:00 -2°C° 0 mm 4 m/S 749 mmHg 88%
    01:00 -2°C° 0 mm 4 m/S 748 mmHg 88%
    02:00 -2°C° 0 mm 4 m/S 748 mmHg 88%
    03:00 -2°C° 0 mm 4 m/S 747 mmHg 88%
    04:00 -2°C° 0 mm 4 m/S 746 mmHg 88%
    05:00 -2°C° 0 mm 4 m/S 745 mmHg 88%
    06:00 -1°C° 0 mm 4 m/S 744 mmHg 87%
    07:00 -1°C° 0 mm 4 m/S 743 mmHg 86%
    08:00 -1°C° 0 mm 4 m/S 742 mmHg 85%
    09:00 0°C° 0.2 mm 4 m/S 741 mmHg 82%
    10:00 0°C° 0.2 mm 4 m/S 740 mmHg 78%
    11:00 +1°C° 0.2 mm 5 m/S 739 mmHg 75%
    12:00 +1°C° 0.1 mm 5 m/S 738 mmHg 78%
    13:00 +1°C° 0.1 mm 4 m/S 737 mmHg 81%
    14:00 +1°C° 0.1 mm 4 m/S 736 mmHg 84%
    15:00 +1°C° 0 mm 4 m/S 736 mmHg 84%
    16:00 0°C° 0 mm 4 m/S 735 mmHg 83%
    17:00 0°C° 0 mm 4 m/S 735 mmHg 83%
    18:00 0°C° 0.1 mm 5 m/S 735 mmHg 81%
    19:00 -2°C° 0.1 mm 6 m/S 736 mmHg 80%
    20:00 -2°C° 0.1 mm 7 m/S 736 mmHg 79%
    21:00 -3°C° 0 mm 7 m/S 736 mmHg 76%
    22:00 -4°C° 0 mm 7 m/S 737 mmHg 74%
    23:00 -6°C° 0 mm 8 m/S 738 mmHg 72%
    Mehr zeigen